sat.trackr.live / text

‹ back to catalog

STARLINK-37021

NORAD 68105 · 2026-044E

PAYLOAD ACTIVE UNKNOWN

§ Identity

Operator
Country
US
Launch date
2026-03-08
Launch site
AFWTR
Launch vehicle
Mass (kg)
RCS (m²)

Purposes: comms

External: N2YO · Heavens-Above · Gunter

§ Orbital elements

Epoch: 2026-05-24T20:37:32.110752Z

Period
93.91 min
Inclination
97.2849°
Eccentricity
0.0001681
Mean motion
15.33451142 rev/d
Perigee alt
464.4 km
Apogee alt
466.7 km
Semi-major
6,843.7 km
B*
7.6920e-4
RAAN
105.4504°
Arg perigee
100.9520°
Mean anomaly
259.1912°
Rev number
1,325

§ Raw data

STARLINK-370211 68105U 26044E   26144.85939943  .00024845  00000+0  76920-3 0  99922 68105  97.2849 105.4504 0001681 100.9520 259.1912 15.33451142 13252

JSON: /api/v1/satellites/68105 · /tle

For live sub-satellite position, see the globe view (requires WebGL).

§ Visibility from observer

Set your observer location to see the next 7 days of passes ≥ 10°. The values pass through the URL so the page stays shareable.

No JS? Fill the form by hand. The geolocation button needs JavaScript.